Flag for Switzerland Weather past 2 weeks in Küsnacht, Zurich, Switzerland

Now
58 °F

Cool.


Feels Like: 59 °F
Forecast: 54 / 80 °F
Wind: 3 mph from South

Location: Zurich Town / Ville.

Current Time: Jun 2, 2015 at 3:40:39 AM

Latest Report: Jun 2, 2015 at 3:00 AM


Visibility: N/A

Pressure: 30.06 "Hg

Humidity: 98%

Dew point: 57 °F

Location of KüsnachtLocation

Historic Weather in Küsnacht — Graph

°F

Küsnacht temperature yesterday

Maximum temperature yesterday: 74 °F (at 4:00 PM)
Minimum temperature yesterday: 56 °F (at 6:00 AM)
Average temperature yesterday: 64 °F

Past Weeks' High & Low Weather Summary

 TemperatureHumidityPressure
High75 °F (May 29, 4:00 PM)98% (Jun 2, 12:00 AM)30.34 "Hg (Jun 2, 12:00 AM)
Low41 °F (May 21, 1:00 AM)26% (May 28, 4:00 PM)29.71 "Hg (May 18, 7:00 PM)
Average55 °F72%30.04 "Hg
* Reported May 18 2:00 AM — Jun 2 2:00 AM, Küsnacht, Weather by CustomWeather, © 2015

Note: Actual official high and low records may vary slightly from our data, if they occured in-between our weather recording intervals... More about our weather records

Advertising

Küsnacht weather history for previous 24 hours

 ConditionsComfort  
Time TempWeatherWind HumidityBarometerVisibility
2:00 AM
Tue, Jun 2
57 °FCool.1 mph97%30.08 "HgN/A
1:00 AM58 °FCool.2 mph97%30.08 "HgN/A
12:00 AM59 °FCool.1 mph98%30.08 "HgN/A
10:00 PM
Mon, Jun 1
59 °FCool.1 mph96%30.05 "HgN/A
9:00 PM60 °FCool.3 mph96%30.04 "HgN/A
8:00 PM62 °FCool.3 mph93%30.04 "HgN/A
7:00 PM68 °FMild.7 mph62%30.00 "HgN/A
6:00 PM70 °FMild.5 mph61%29.99 "HgN/A
5:00 PM69 °FMild.8 mph58%29.98 "HgN/A
4:00 PM74 °FMild.10 mph53%29.96 "HgN/A
3:00 PM70 °FMild.7 mph57%29.98 "HgN/A
2:00 PM71 °FPartly sunny.12 mph50%29.98 "HgN/A
1:00 PM72 °FMild.10 mph50%29.98 "HgN/A
12:00 PM71 °FMild.7 mph51%29.99 "HgN/A
11:00 AM68 °FMild.7 mph57%30.01 "HgN/A
10:00 AM65 °FMild.3 mph60%30.02 "HgN/A
9:00 AM62 °FMild.1 mph65%30.03 "HgN/A
8:00 AM60 °FCool.1 mph73%30.03 "HgN/A
7:00 AM57 °FCool.No wind86%30.05 "HgN/A
6:00 AM56 °FCool.1 mph88%30.04 "HgN/A
4:00 AM60 °FCool.2 mph72%30.02 "HgN/A
3:00 AM59 °FCool.1 mph67%30.02 "HgN/A
Weather by CustomWeather, © 2015

See weather overviewHow to use our weather pages